Location: Tabor
(49.4170°N, 14.6670°E)
Time: 09:49:12
(UTC+01:00)

ISS - Visible Passes

Search period start: 03 March 2024 00:00
Search period end: 13 March 2024 00:00
Orbit: 414 x 422 km, 51.6° (Epoch: 03 March)

Date Brightness Start Highest point End Pass type
(mag) Time Alt. Az. Time Alt. Az. Time Alt. Az.
03 Mar -1.1 03:49:49 21° E 03:49:49 21° E 03:51:06 10° E visible
03 Mar -3.7 05:22:45 24° W 05:24:35 61° SSW 05:27:55 10° SE visible
04 Mar -3.8 04:36:46 79° SSE 04:36:46 79° SSE 04:40:00 10° ESE visible
05 Mar -1.2 03:50:50 20° E 03:50:50 20° E 03:51:59 10° ESE visible
05 Mar -2.7 05:23:46 22° WSW 05:25:11 30° SW 05:28:11 10° SSE visible
06 Mar -2.9 04:37:55 38° S 04:37:55 38° S 04:40:28 10° SE visible
07 Mar -0.9 03:52:11 13° SE 03:52:11 13° SE 03:52:34 10° ESE visible
07 Mar -1.8 05:25:08 14° SW 05:25:29 14° SW 05:27:22 10° S visible
08 Mar -1.4 04:39:31 14° S 04:39:31 14° S 04:40:13 10° SSE visible
